This is the latest recevied weather packets stored in our database for station/object SR8WXB-1. If no packets are shown the sender has not sent any weather packets the latest 1 day(s).
| Time | Temp. | Humidity | Pressure | Rain* | Wind** | Luminosity | Snow |
|---|---|---|---|---|---|---|---|
| 1777981274 | 22.22° C | 100% | 940.9 hPa | - | 10.28 m/s, 244° | - | - |
| 1777981031 | 22.78° C | 100% | 941 hPa | - | 9.83 m/s, 245° | - | - |
| 1777980791 | 22.22° C | 100% | 941 hPa | - | 9.83 m/s, 245° | - | - |
| 1777980551 | 22.78° C | 100% | 941 hPa | - | 11.18 m/s, 243° | - | - |
| 1777980311 | 22.78° C | 100% | 941 hPa | - | 10.28 m/s, 244° | - | - |
| 1777980070 | 22.22° C | 100% | 941 hPa | - | 9.39 m/s, 251° | - | - |
| 1777979828 | 21.67° C | 100% | 941 hPa | - | 11.62 m/s, 251° | - | - |
| 1777979588 | 21.67° C | 100% | 941.1 hPa | - | 9.83 m/s, 243° | - | - |
| 1777979348 | 21.67° C | 100% | 941.1 hPa | - | 12.52 m/s, 245° | - | - |
| 1777979108 | 21.67° C | 100% | 941.1 hPa | - | 10.73 m/s, 242° | - | - |
| 1777978859 | 21.67° C | 100% | 941.2 hPa | - | 11.18 m/s, 241° | - | - |
| 1777978616 | 21.67° C | 100% | 941.2 hPa | - | 10.73 m/s, 243° | - | - |
| 1777978376 | 22.22° C | 100% | 941.3 hPa | - | 8.94 m/s, 242° | - | - |
| 1777977896 | 22.22° C | 100% | 941.3 hPa | - | 9.39 m/s, 243° | - | - |
| 1777977657 | 22.22° C | 100% | 941.3 hPa | - | 10.73 m/s, 247° | - | - |
| 1777977410 | 21.67° C | 100% | 941.3 hPa | - | 12.07 m/s, 245° | - | - |
| 1777977170 | 21.67° C | 100% | 941.3 hPa | - | 10.28 m/s, 245° | - | - |
| 1777976930 | 21.67° C | 100% | 941.3 hPa | - | 8.49 m/s, 245° | - | - |
| 1777976690 | 21.67° C | 100% | 941.3 hPa | - | 10.73 m/s, 251° | - | - |
| 1777976450 | 21.11° C | 100% | 941.3 hPa | - | 10.28 m/s, 248° | - | - |
| 1777976207 | 21.11° C | 100% | 941.4 hPa | - | 11.62 m/s, 245° | - | - |
| 1777975967 | 21.11° C | 100% | 941.4 hPa | - | 13.41 m/s, 250° | - | - |
| 1777975727 | 21.11° C | 100% | 941.4 hPa | - | 11.62 m/s, 248° | - | - |
| 1777975487 | 20.56° C | 100% | 941.5 hPa | - | 12.52 m/s, 247° | - | - |
| 1777975247 | 20.56° C | 100% | 941.5 hPa | - | 11.62 m/s, 252° | - | - |
* Rain since midnight (hover to see other rain measurements)
** Current wind speed in m/s (hover to see current wind gust speed)